When you browse on this site, cookies collect data to enhance your experience and personalize the content and advertising you see.
Visit our Privacy Policy to learn more. By continuing to use the site, you agree to this use of cookies and data.
  • In Hungary
  • List of Countries
  • For 7 days
  • Water Temperature
  • Satellite Maps
  • Weather Map
  • News
  • Weather Widgets
  • user-avatar
    Login

    Hourly Weather Gjirokaster

    Today, 14 December, Friday

    Time Temperature Precipitation Wind Pressure Humidity
    00:00 -2°C° 0.2 mm 4 mps 648 mmHg 90%
    01:00 -2°C° 0.2 mm 4 mps 648 mmHg 91%
    02:00 -2°C° 0.3 mm 4 mps 648 mmHg 92%
    03:00 -1°C° 0.3 mm 4 mps 648 mmHg 93%
    04:00 -1°C° 0.3 mm 4 mps 648 mmHg 94%
    05:00 -1°C° 0.2 mm 4 mps 648 mmHg 94%
    06:00 0°C° 0.2 mm 4 mps 648 mmHg 94%
    07:00 0°C° 0.2 mm 5 mps 648 mmHg 94%
    08:00 +1°C° 0.2 mm 5 mps 648 mmHg 93%
    09:00 +1°C° 0.2 mm 5 mps 649 mmHg 92%
    10:00 +2°C° 0.2 mm 5 mps 649 mmHg 91%
    11:00 +2°C° 0.3 mm 5 mps 649 mmHg 91%
    12:00 +3°C° 0.3 mm 5 mps 649 mmHg 91%
    13:00 +3°C° 0.3 mm 5 mps 649 mmHg 90%
    14:00 +3°C° 0.5 mm 5 mps 649 mmHg 91%
    15:00 +3°C° 0.5 mm 5 mps 649 mmHg 92%
    16:00 +2°C° 0.5 mm 5 mps 649 mmHg 93%
    17:00 +2°C° 0.2 mm 5 mps 648 mmHg 92%
    18:00 +2°C° 0.2 mm 5 mps 648 mmHg 92%
    19:00 +1°C° 0.2 mm 5 mps 648 mmHg 92%
    20:00 +1°C° 0 mm 5 mps 648 mmHg 90%
    21:00 0°C° 0 mm 5 mps 648 mmHg 89%
    22:00 0°C° 0 mm 5 mps 648 mmHg 88%
    23:00 0°C° 0.1 mm 5 mps 648 mmHg 87%

    Tomorrow, 15 December, Saturday

    Time Temperature Precipitation Wind Pressure Humidity
    00:00 0°C° 0.1 mm 5 mps 648 mmHg 86%
    01:00 0°C° 0.1 mm 5 mps 648 mmHg 86%
    02:00 0°C° 0.2 mm 5 mps 648 mmHg 87%
    03:00 0°C° 0.2 mm 5 mps 647 mmHg 87%
    04:00 +1°C° 0.2 mm 5 mps 647 mmHg 88%
    05:00 +1°C° 0.8 mm 5 mps 647 mmHg 89%
    06:00 +1°C° 0.8 mm 5 mps 647 mmHg 90%
    07:00 +1°C° 0.8 mm 5 mps 647 mmHg 90%
    08:00 +2°C° 0.3 mm 5 mps 648 mmHg 86%
    09:00 +3°C° 0.3 mm 5 mps 648 mmHg 83%
    10:00 +3°C° 0.3 mm 5 mps 648 mmHg 79%
    11:00 +5°C° 0.1 mm 5 mps 648 mmHg 75%
    12:00 +6°C° 0.1 mm 4 mps 648 mmHg 72%
    13:00 +6°C° 0.1 mm 4 mps 648 mmHg 68%
    14:00 +6°C° 0.1 mm 4 mps 648 mmHg 72%
    15:00 +5°C° 0.1 mm 4 mps 647 mmHg 76%
    16:00 +4°C° 0.1 mm 3 mps 647 mmHg 80%
    17:00 +3°C° 0.1 mm 3 mps 647 mmHg 81%
    18:00 +3°C° 0.1 mm 3 mps 647 mmHg 82%
    19:00 +3°C° 0.1 mm 2 mps 647 mmHg 83%
    20:00 +3°C° 0.1 mm 2 mps 647 mmHg 83%
    21:00 +3°C° 0.1 mm 2 mps 647 mmHg 83%
    22:00 +3°C° 0.1 mm 2 mps 647 mmHg 83%
    23:00 +2°C° 0.2 mm 3 mps 647 mmHg 84%

    Day after tomorrow, 16 December, Sunday

    Time Temperature Precipitation Wind Pressure Humidity
    00:00 +2°C° 0.2 mm 3 mps 647 mmHg 85%
    01:00 +2°C° 0.2 mm 3 mps 648 mmHg 86%
    02:00 +1°C° 0.4 mm 3 mps 647 mmHg 87%
    03:00 0°C° 0.4 mm 4 mps 647 mmHg 89%
    04:00 0°C° 0.4 mm 4 mps 647 mmHg 90%
    05:00 0°C° 0.6 mm 4 mps 647 mmHg 91%
    06:00 0°C° 0.6 mm 4 mps 648 mmHg 91%
    07:00 -1°C° 0.6 mm 4 mps 648 mmHg 92%
    08:00 0°C° 0.3 mm 4 mps 648 mmHg 90%
    09:00 0°C° 0.3 mm 4 mps 648 mmHg 88%
    10:00 0°C° 0.3 mm 4 mps 649 mmHg 85%
    11:00 +1°C° 0.1 mm 4 mps 649 mmHg 84%
    12:00 +1°C° 0.1 mm 4 mps 649 mmHg 83%
    13:00 +1°C° 0.1 mm 5 mps 649 mmHg 82%
    14:00 0°C° 0.1 mm 5 mps 649 mmHg 83%
    15:00 0°C° 0.1 mm 4 mps 649 mmHg 84%
    16:00 0°C° 0.1 mm 4 mps 649 mmHg 85%
    17:00 -1°C° 0 mm 4 mps 650 mmHg 86%
    18:00 -1°C° 0 mm 4 mps 650 mmHg 87%
    19:00 -1°C° 0 mm 3 mps 650 mmHg 88%
    20:00 -1°C° 0 mm 3 mps 650 mmHg 88%
    21:00 -1°C° 0 mm 3 mps 651 mmHg 88%
    22:00 -1°C° 0 mm 2 mps 651 mmHg 88%
    23:00 -1°C° 0 mm 2 mps 651 mmHg 88%

    17 December, Monday

    Time Temperature Precipitation Wind Pressure Humidity
    00:00 -1°C° 0 mm 2 mps 651 mmHg 88%
    01:00 -1°C° 0 mm 2 mps 651 mmHg 88%
    02:00 -1°C° 0 mm 2 mps 651 mmHg 88%
    03:00 +1°C° 0 mm 1 mps 651 mmHg 87%
    04:00 +1°C° 0 mm 1 mps 651 mmHg 87%
    05:00 +2°C° 0 mm 1 mps 651 mmHg 87%
    06:00 +2°C° 0 mm 1 mps 651 mmHg 86%
    07:00 +2°C° 0 mm 1 mps 652 mmHg 86%
    08:00 +3°C° 0 mm 1 mps 652 mmHg 83%
    09:00 +4°C° 0 mm 1 mps 652 mmHg 80%
    10:00 +5°C° 0 mm 1 mps 653 mmHg 77%
    11:00 +6°C° 0 mm 1 mps 653 mmHg 76%
    12:00 +6°C° 0 mm 1 mps 652 mmHg 75%
    13:00 +5°C° 0 mm 2 mps 652 mmHg 73%
    14:00 +5°C° 0 mm 2 mps 652 mmHg 78%
    15:00 +4°C° 0 mm 2 mps 652 mmHg 82%
    16:00 +3°C° 0 mm 2 mps 652 mmHg 86%
    17:00 +3°C° 0 mm 2 mps 652 mmHg 87%
    18:00 +2°C° 0 mm 3 mps 652 mmHg 89%
    19:00 +1°C° 0 mm 3 mps 652 mmHg 90%
    20:00 +1°C° 0.1 mm 3 mps 652 mmHg 90%
    21:00 0°C° 0.1 mm 4 mps 652 mmHg 90%
    22:00 0°C° 0.1 mm 4 mps 652 mmHg 90%
    23:00 0°C° 0.4 mm 4 mps 652 mmHg 90%

    18 December, Tuesday

    Time Temperature Precipitation Wind Pressure Humidity
    00:00 0°C° 0.4 mm 4 mps 651 mmHg 90%
    01:00 0°C° 0.4 mm 4 mps 651 mmHg 90%
    02:00 0°C° 0.6 mm 4 mps 651 mmHg 90%
    03:00 0°C° 0.6 mm 4 mps 651 mmHg 91%
    04:00 0°C° 0.6 mm 4 mps 651 mmHg 91%
    05:00 +1°C° 0.4 mm 3 mps 651 mmHg 91%
    06:00 +1°C° 0.4 mm 3 mps 651 mmHg 91%
    07:00 +2°C° 0.4 mm 2 mps 651 mmHg 91%
    08:00 +3°C° 0.5 mm 2 mps 651 mmHg 89%
    09:00 +3°C° 0.5 mm 2 mps 651 mmHg 87%
    10:00 +5°C° 0.5 mm 1 mps 651 mmHg 86%
    11:00 +4°C° 0.7 mm 2 mps 651 mmHg 85%
    12:00 +4°C° 0.7 mm 2 mps 651 mmHg 84%
    13:00 +4°C° 0.7 mm 2 mps 651 mmHg 83%
    14:00 +3°C° 0.4 mm 3 mps 651 mmHg 85%
    15:00 +3°C° 0.4 mm 3 mps 651 mmHg 86%
    16:00 +1°C° 0.4 mm 4 mps 651 mmHg 87%
    17:00 +1°C° 0.3 mm 4 mps 651 mmHg 88%
    18:00 0°C° 0.3 mm 4 mps 651 mmHg 88%
    19:00 0°C° 0.3 mm 4 mps 651 mmHg 88%
    20:00 0°C° 0.2 mm 4 mps 652 mmHg 87%
    21:00 -1°C° 0.2 mm 4 mps 652 mmHg 86%
    22:00 0°C° 0.2 mm 3 mps 652 mmHg 86%
    23:00 -1°C° 0 mm 3 mps 652 mmHg 85%

    19 December, Wednesday

    Time Temperature Precipitation Wind Pressure Humidity
    00:00 -1°C° 0 mm 3 mps 652 mmHg 85%
    01:00 -2°C° 0 mm 3 mps 653 mmHg 84%
    02:00 -2°C° 0 mm 3 mps 653 mmHg 84%
    03:00 -2°C° 0 mm 3 mps 653 mmHg 84%
    04:00 -4°C° 0 mm 3 mps 653 mmHg 84%
    05:00 -4°C° 0 mm 3 mps 653 mmHg 83%
    06:00 -4°C° 0 mm 3 mps 653 mmHg 82%
    07:00 -4°C° 0 mm 3 mps 654 mmHg 82%
    08:00 -2°C° 0 mm 3 mps 654 mmHg 77%
    09:00 +1°C° 0 mm 2 mps 655 mmHg 73%
    10:00 +3°C° 0 mm 2 mps 655 mmHg 69%
    11:00 +4°C° 0 mm 2 mps 655 mmHg 66%
    12:00 +5°C° 0 mm 2 mps 655 mmHg 63%
    13:00 +5°C° 0 mm 2 mps 655 mmHg 61%
    14:00 +4°C° 0 mm 2 mps 655 mmHg 65%
    15:00 +4°C° 0 mm 2 mps 655 mmHg 69%
    16:00 +3°C° 0 mm 2 mps 655 mmHg 73%
    17:00 +2°C° 0 mm 2 mps 655 mmHg 75%
    18:00 +1°C° 0 mm 2 mps 655 mmHg 76%
    19:00 -1°C° 0 mm 2 mps 655 mmHg 78%
    20:00 +1°C° 0 mm 1 mps 655 mmHg 77%
    21:00 +1°C° 0 mm 1 mps 655 mmHg 76%
    22:00 +1°C° 0 mm 1 mps 655 mmHg 76%
    23:00 -1°C° 0 mm 2 mps 655 mmHg 75%
    Show more